TimeCDT,TemperatureF,Dew PointF,Humidity,Sea Level PressureIn,VisibilityMPH,Wind Direction,Wind SpeedMPH,Gust SpeedMPH,PrecipitationIn,Events,Conditions,WindDirDegrees,DateUTC
12:29 AM,60.8,55.4,82,29.91,10.0,SSE,15.0,-,0.01,,Mostly Cloudy,160,2013-05-25 05:29:00
12:53 AM,59.0,55.9,90,29.96,10.0,South,11.5,20.7,0.01,Thunderstorm,Partly Cloudy,170,2013-05-25 05:53:00
1:11 AM,60.8,57.2,88,29.99,10.0,SE,12.7,-,N/A,,Clear,140,2013-05-25 06:11:00
1:53 AM,61.0,57.0,87,29.96,10.0,South,10.4,-,N/A,,Mostly Cloudy,170,2013-05-25 06:53:00
2:46 AM,62.6,55.4,77,29.96,10.0,SSE,17.3,27.6,0.01,Rain,Light Rain,150,2013-05-25 07:46:00
2:53 AM,62.1,55.9,80,29.97,10.0,South,12.7,27.6,0.01,Rain,Light Rain,170,2013-05-25 07:53:00
3:05 AM,62.6,57.2,82,30.00,10.0,SSE,10.4,-,0.00,Rain-Thunderstorm,Light Thunderstorms and Rain,160,2013-05-25 08:05:00
3:20 AM,62.6,55.4,77,29.96,10.0,SE,17.3,26.5,0.01,Rain,Light Rain,140,2013-05-25 08:20:00
3:53 AM,61.0,55.9,83,29.99,10.0,WSW,15.0,23.0,0.03,Rain,Light Rain,250,2013-05-25 08:53:00
4:26 AM,60.8,57.2,88,30.03,10.0,SW,11.5,-,0.01,Rain-Thunderstorm,Light Rain,230,2013-05-25 09:26:00
4:36 AM,60.8,57.2,88,30.04,8.0,SW,10.4,-,0.03,Rain-Thunderstorm,Rain,220,2013-05-25 09:36:00
4:53 AM,60.1,57.9,93,29.98,10.0,SE,8.1,-,0.05,Rain-Thunderstorm,Light Rain,140,2013-05-25 09:53:00
5:29 AM,60.8,57.2,88,30.06,9.0,SW,9.2,-,0.02,Rain,Light Rain,230,2013-05-25 10:29:00
5:36 AM,60.8,57.2,88,30.06,9.0,SW,16.1,20.7,0.03,Rain-Thunderstorm,Light Rain,220,2013-05-25 10:36:00
5:51 AM,60.8,57.2,88,30.04,9.0,South,15.0,-,0.06,Rain,Light Rain,190,2013-05-25 10:51:00
5:53 AM,60.1,57.9,93,30.03,10.0,South,12.7,-,0.06,Rain,Light Rain,190,2013-05-25 10:53:00
6:53 AM,60.1,55.9,86,29.98,10.0,South,11.5,-,0.01,,Mostly Cloudy,170,2013-05-25 11:53:00
7:53 AM,61.0,55.0,81,29.94,10.0,South,13.8,20.7,N/A,,Clear,170,2013-05-25 12:53:00
8:53 AM,64.9,55.9,73,29.92,10.0,SE,4.6,17.3,N/A,,Clear,140,2013-05-25 13:53:00
9:53 AM,70.0,57.9,65,29.92,10.0,SSE,10.4,16.1,N/A,,Clear,150,2013-05-25 14:53:00
10:53 AM,72.0,57.9,61,29.94,10.0,South,13.8,19.6,N/A,,Clear,170,2013-05-25 15:53:00
11:53 AM,73.9,61.0,64,29.94,10.0,South,17.3,25.3,N/A,,Clear,180,2013-05-25 16:53:00
12:53 PM,75.0,62.1,64,29.94,10.0,SSE,15.0,20.7,N/A,,Partly Cloudy,150,2013-05-25 17:53:00
1:53 PM,75.0,63.0,66,29.94,10.0,South,12.7,-,N/A,,Overcast,170,2013-05-25 18:53:00
2:53 PM,77.0,64.0,64,29.91,10.0,SSE,10.4,17.3,N/A,,Mostly Cloudy,160,2013-05-25 19:53:00
3:53 PM,78.1,64.9,64,29.90,10.0,East,10.4,-,N/A,,Overcast,100,2013-05-25 20:53:00
4:53 PM,78.1,66.0,66,29.88,10.0,ESE,10.4,-,N/A,,Mostly Cloudy,110,2013-05-25 21:53:00
5:53 PM,77.0,68.0,74,29.86,10.0,East,13.8,-,N/A,,Scattered Clouds,90,2013-05-25 22:53:00
6:53 PM,78.1,66.0,66,29.83,10.0,ESE,11.5,-,N/A,,Clear,110,2013-05-25 23:53:00
7:53 PM,78.1,66.0,66,29.83,10.0,ESE,11.5,-,N/A,,Partly Cloudy,120,2013-05-26 00:53:00
8:53 PM,75.0,66.0,73,29.84,10.0,ESE,11.5,-,N/A,,Scattered Clouds,120,2013-05-26 01:53:00
9:53 PM,73.0,64.9,76,29.83,10.0,ESE,10.4,-,N/A,,Clear,120,2013-05-26 02:53:00
10:53 PM,72.0,64.9,78,29.85,10.0,ESE,8.1,-,N/A,,Clear,120,2013-05-26 03:53:00
11:53 PM,72.0,63.0,73,29.85,10.0,ESE,12.7,-,N/A,,Clear,120,2013-05-26 04:53:00